Temperature
-4 -4 -4 -4 -3 -3 -4 -3 -3 -3 -3 -3 -3 -3 -3 -3 -2 -2 -1 -1 -0 0 0 1 1 2 2 3 3 4 4 4 5 5 5 5 5 5 5 5 5 5 5 5
-5 -4 -4 -3 -4 -4 -4 -4 -3 -3 -3 -3 -3 -3 -3 -3 -3 -3 -3 -2 -1 -1 -0 0 1 1 2 2 2 3 3 4 4 4 4 4 4 5 5 5 5 5 5 5
-5 -5 -4 -4 -5 -4 -4 -5 -4 -4 -4 -4 -4 -4 -4 -4 -4 -4 -3 -3 -2 -1 -1 -0 0 1 1 2 2 2 3 3 3 3 4 4 4 4 4 4 4 4 4 4
-6 -6 -5 -5 -5 -5 -5 -5 -5 -5 -5 -5 -4 -4 -3 -3 -4 -3 -3 -3 -2 -2 -1 -1 -0 0 1 1 1 2 2 2 3 3 3 3 3 3 3 3 3 3 4 4
-7 -7 -6 -5 -5 -6 -6 -5 -5 -6 -5 -5 -5 -4 -4 -3 -3 -3 -3 -2 -2 -2 -1 -1 -1 -0 0 0 1 1 1 2 2 2 2 2 3 3 3 3 3 3 3 3
-8 -6 -6 -6 -6 -6 -6 -5 -6 -6 -6 -6 -5 -5 -4 -4 -4 -3 -3 -2 -2 -2 -1 -1 -1 -1 -1 -0 0 0 1 1 1 1 2 2 2 2 2 2 2 2 2 2
-8 -8 -7 -7 -6 -6 -6 -6 -6 -6 -6 -6 -6 -6 -5 -4 -4 -3 -3 -2 -2 -2 -2 -2 -1 -1 -1 -1 -1 -0 -0 0 0 1 1 1 1 1 1 1 1 1 1 1
-8 -8 -7 -7 -7 -7 -7 -6 -6 -6 -6 -7 -6 -6 -5 -5 -4 -4 -3 -3 -2 -2 -2 -2 -2 -2 -2 -2 -1 -1 -1 -1 -0 -0 0 0 1 1 1 1 1 1 1 1
-9 -8 -7 -7 -7 -7 -7 -7 -7 -7 -7 -7 -7 -6 -6 -5 -5 -4 -4 -3 -3 -3 -3 -3 -3 -2 -2 -2 -2 -2 -1 -1 -1 -1 -1 -0 -0 0 0 0 0 0 0 0
-9 -9 -8 -7 -7 -7 -7 -7 -7 -7 -7 -7 -7 -6 -6 -6 -5 -5 -4 -4 -4 -3 -3 -3 -3 -3 -3 -3 -2 -2 -2 -2 -1 -1 -1 -1 -1 -1 -0 -0 -0 -0 -1 -1
-10 -9 -8 -7 -7 -7 -7 -7 -7 -7 -7 -7 -7 -7 -7 -6 -6 -5 -5 -5 -4 -4 -4 -4 -3 -3 -3 -3 -3 -3 -3 -2 -2 -2 -2 -2 -2 -2 -1 -1 -1 -1 -1 -1
-9 -8 -9 -8 -7 -7 -7 -7 -8 -8 -7 -7 -8 -7 -7 -7 -6 -6 -6 -5 -5 -5 -5 -4 -4 -4 -4 -4 -3 -3 -3 -3 -3 -3 -3 -2 -2 -2 -2 -2 -2 -2 -2 -2
-8 -8 -8 -8 -7 -8 -8 -8 -8 -8 -8 -8 -8 -8 -7 -7 -7 -6 -6 -6 -6 -5 -5 -5 -5 -5 -4 -4 -4 -4 -4 -4 -4 -4 -3 -3 -3 -3 -3 -3 -3 -3 -3 -3
-8 -8 -8 -8 -8 -8 -8 -8 -8 -8 -8 -8 -8 -8 -8 -7 -7 -7 -7 -6 -6 -6 -6 -6 -5 -5 -5 -5 -5 -5 -5 -5 -4 -4 -4 -4 -4 -4 -3 -3 -3 -3 -3 -3
-8 -8 -8 -8 -8 -8 -8 -8 -8 -8 -8 -8 -8 -8 -8 -7 -7 -7 -7 -7 -7 -6 -6 -6 -6 -6 -6 -5 -5 -5 -5 -5 -5 -5 -5 -4 -4 -4 -4 -4 -4 -4 -4 -4
-8 -8 -8 -9 -9 -9 -9 -8 -9 -9 -8 -8 -8 -8 -8 -8 -8 -7 -7 -7 -7 -7 -7 -7 -6 -6 -6 -6 -6 -6 -6 -6 -5 -5 -5 -5 -5 -5 -5 -5 -5 -5 -5 -5
-9 -9 -9 -9 -9 -9 -9 -9 -9 -9 -9 -9 -8 -8 -8 -8 -8 -8 -8 -7 -7 -7 -7 -7 -7 -7 -7 -7 -7 -6 -6 -6 -6 -6 -6 -6 -6 -5 -5 -5 -5 -5 -5 -5
-8 -8 -8 -9 -9 -9 -9 -9 -9 -9 -9 -9 -9 -9 -8 -8 -8 -8 -8 -8 -8 -8 -8 -8 -8 -7 -7 -7 -7 -7 -7 -7 -7 -7 -7 -7 -6 -6 -6 -6 -6 -6 -6 -6
-8 -8 -8 -9 -9 -9 -9 -9 -9 -9 -9 -9 -9 -9 -9 -9 -9 -9 -9 -8 -8 -8 -8 -8 -8 -8 -8 -8 -8 -8 -8 -8 -7 -7 -7 -7 -7 -7 -7 -7 -7 -6 -6 -6
-8 -8 -8 -9 -9 -9 -9 -9 -9 -9 -9 -9 -9 -9 -9 -9 -9 -9 -9 -9 -9 -9 -9 -9 -8 -8 -8 -8 -8 -8 -8 -8 -8 -8 -8 -8 -8 -8 -8 -7 -7 -7 -7 -7
-8 -8 -9 -9 -9 -9 -9 -9 -9 -9 -9 -9 -9 -9 -9 -9 -9 -9 -9 -9 -9 -9 -9 -9 -9 -9 -9 -9 -9 -9 -9 -8 -8 -8 -8 -8 -8 -8 -8 -8 -8 -8 -7 -7
-9 -9 -9 -9 -9 -9 -9 -10 -10 -10 -10 -10 -10 -10 -10 -10 -9 -9 -9 -9 -9 -10 -9 -9 -9 -9 -9 -9 -9 -9 -9 -9 -9 -9 -9 -9 -9 -9 -8 -8 -8 -8 -8 -8
-9 -9 -9 -9 -9 -10 -10 -10 -10 -10 -10 -10 -10 -10 -10 -10 -10 -10 -10 -10 -10 -10 -10 -10 -10 -9 -9 -9 -9 -9 -9 -9 -9 -9 -9 -9 -9 -9 -9 -9 -9 -8 -8 -8
-9 -9 -10 -10 -10 -10 -10 -10 -10 -10 -10 -10 -10 -10 -10 -10 -10 -10 -10 -10 -10 -10 -10 -10 -10 -10 -10 -10 -9 -9 -9 -9 -9 -9 -9 -9 -9 -9 -9 -9 -9 -9 -9 -9
-10 -10 -10 -10 -10 -10 -10 -10 -10 -10 -10 -10 -10 -10 -11 -11 -11 -11 -11 -11 -10 -10 -10 -10 -10 -10 -10 -10 -10 -10 -10 -10 -10 -10 -10 -10 -9 -9 -9 -9 -9 -9 -9 -9
-10 -10 -10 -10 -10 -10 -11 -11 -11 -10 -11 -11 -11 -11 -11 -11 -11 -11 -11 -11 -11 -10 -10 -10 -10 -10 -10 -10 -10 -10 -10 -10 -10 -10 -10 -10 -10 -10 -10 -10 -10 -10 -10 -9
-10 -10 -10 -10 -11 -11 -11 -11 -11 -11 -11 -11 -11 -11 -11 -11 -11 -11 -11 -11 -11 -11 -11 -11 -10 -10 -10 -10 -10 -10 -10 -10 -10 -10 -10 -10 -10 -10 -10 -10 -10 -10 -10 -10
Wind_Speed
3 3 2 4 7 5 2 2 2 3 3 7 9 8 8 7 6 7 7 7 6 5 5 5 6 6 6 6 5 4 2 2 1 0 1 1 1 2 2 3 3 4 4 4
3 3 3 5 7 5 4 3 2 3 4 6 7 6 7 7 7 7 7 8 7 6 5 5 5 5 5 5 5 4 3 2 2 0 1 1 1 1 2 3 3 4 4 4
3 5 4 4 4 3 2 3 1 3 4 7 7 8 7 6 7 7 7 8 7 6 5 4 4 4 4 4 4 4 3 3 2 1 1 1 1 2 2 2 3 3 4 4
2 3 2 4 2 2 2 2 3 3 5 5 6 7 5 4 5 7 7 7 7 6 5 4 4 4 4 4 4 3 3 3 3 2 0 0 1 2 2 2 3 3 3 3
1 1 5 4 3 2 2 4 3 5 7 7 7 5 3 5 6 6 6 6 6 5 5 4 4 4 3 4 3 3 3 3 3 2 1 1 1 1 2 2 2 2 2 3
1 1 4 4 6 6 1 3 5 5 7 7 6 4 5 8 8 8 7 6 6 6 5 4 4 3 3 3 3 3 3 3 3 2 1 0 1 1 1 2 2 2 2 2
1 3 5 4 6 3 2 5 7 6 6 5 3 4 7 8 8 7 7 7 6 5 5 4 4 3 3 3 3 3 3 3 2 2 1 1 1 1 2 2 2 3 2 1
2 2 5 4 2 0 4 5 5 5 5 5 6 7 7 7 7 8 7 7 6 6 5 5 4 3 3 4 4 3 2 3 2 2 1 1 2 1 2 3 3 2 2 1
5 5 3 2 3 4 3 4 5 5 6 6 6 7 8 8 7 7 7 7 6 6 5 5 4 3 3 4 3 3 3 2 2 3 2 1 1 2 2 2 2 2 2 1
4 6 5 5 4 4 4 5 6 6 6 5 6 7 8 7 7 7 7 6 6 6 5 5 5 5 4 3 3 2 2 2 2 2 2 2 1 1 1 1 2 2 2 2
5 6 6 5 5 6 6 6 6 6 5 5 5 7 7 7 7 6 6 6 5 5 5 5 5 5 5 4 2 2 2 2 2 2 1 1 2 1 0 0 1 2 2 2
5 4 4 6 6 5 6 6 6 6 7 6 5 6 6 6 6 6 6 5 5 6 5 4 4 5 5 4 2 1 1 1 1 1 1 1 1 2 4 2 2 1 1 1
6 4 5 6 6 5 5 6 6 6 6 7 6 5 5 5 5 6 6 6 6 6 5 4 4 4 5 4 3 2 1 1 1 1 0 0 0 1 1 3 4 2 1 1
5 3 4 4 5 5 6 6 5 5 5 5 5 5 4 5 5 6 6 6 5 5 4 4 4 4 4 4 3 3 2 2 1 0 0 0 0 0 0 1 1 1 1 1
5 4 5 5 5 5 4 4 4 5 5 5 4 5 5 5 5 6 6 6 5 5 4 4 4 5 5 4 3 3 2 2 1 1 1 0 0 0 0 1 1 0 1 1
5 4 4 4 5 5 4 4 4 5 5 5 5 5 5 5 5 5 5 5 4 5 5 4 4 5 4 3 3 3 2 3 3 1 1 1 1 0 0 1 0 0 0 0
2 4 4 5 6 5 5 5 5 5 5 5 5 5 5 5 5 5 5 5 4 4 4 4 4 4 4 3 3 2 2 2 3 2 1 1 1 1 0 0 0 0 1 1
5 5 5 5 5 5 5 5 4 5 4 5 4 3 3 4 4 5 5 5 4 5 5 4 4 4 3 3 3 2 2 2 2 2 2 1 1 1 1 1 1 1 1 1
4 4 4 5 4 4 4 4 4 4 4 3 3 3 3 3 4 4 4 4 4 5 6 5 5 4 3 4 3 2 2 2 2 2 2 2 2 2 1 1 1 1 1 1
3 3 3 4 3 3 3 4 3 3 3 2 2 3 3 4 3 3 3 3 3 3 4 5 4 3 3 3 3 2 1 1 2 2 2 1 2 2 1 1 1 1 1 1
4 3 3 3 3 3 3 3 3 3 3 2 2 2 3 4 3 3 3 4 4 4 4 5 4 3 3 3 3 2 1 1 1 1 2 2 2 2 2 2 2 2 1 1
3 3 4 3 3 4 3 2 2 3 3 3 3 2 3 3 3 3 3 3 4 6 4 3 3 4 4 4 2 1 1 1 1 1 1 2 2 2 2 2 2 2 2 1
3 3 3 3 3 4 3 2 2 2 3 3 3 3 3 3 2 2 4 3 3 5 4 3 4 5 5 3 1 1 1 1 1 1 1 1 1 1 2 2 2 2 2 2
3 3 3 3 2 2 3 4 3 2 3 3 3 3 3 3 3 2 3 5 6 6 3 4 6 5 4 2 1 1 1 1 1 1 1 1 1 1 1 2 2 2 2 2
3 3 2 2 2 3 4 3 3 2 2 3 3 3 2 2 3 3 3 3 5 5 3 4 6 5 3 1 1 1 1 1 1 1 1 1 1 1 1 1 2 2 2 2
2 3 3 3 3 3 2 2 2 2 2 3 3 3 2 2 3 3 3 3 4 5 3 3 3 3 2 1 1 1 1 2 2 2 1 1 1 2 2 2 2 2 2 3
2 2 2 2 2 2 2 2 2 3 2 3 3 3 3 3 3 3 3 3 3 3 3 2 2 2 2 2 2 2 2 2 2 2 2 2 2 2 2 3 3 3 3 3
Wind_Direction
252 274 320 342 338 349 347 287 227 279 288 313 334 337 337 349 4 13 14 13 15 15 12 11 14 13 12 8 6 8 15 16 346 218 161 160 167 173 178 175 175 176 170 174
299 300 327 333 342 337 323 308 280 309 300 313 328 348 356 2 7 6 2 360 359 1 4 4 4 2 3 2 358 6 14 3 352 50 126 141 154 154 170 178 172 165 171 173
294 317 343 321 328 328 317 314 291 275 293 330 339 342 338 342 355 351 348 349 348 347 347 345 346 352 353 352 357 9 14 7 3 22 91 136 154 147 161 178 166 165 171 165
309 14 274 259 321 332 305 326 354 327 321 320 313 309 305 333 343 338 339 339 338 339 338 341 346 351 356 4 11 13 13 10 7 7 36 126 143 151 159 162 160 170 168 164
119 278 281 300 337 347 296 296 349 332 326 330 329 334 331 346 346 330 327 325 325 326 327 338 347 349 359 8 15 13 1 353 356 6 38 112 153 160 158 143 140 154 154 152
117 197 257 279 313 315 237 298 340 334 322 329 348 346 311 328 333 332 335 334 333 336 343 350 347 352 6 2 5 355 342 338 342 355 28 108 143 149 133 129 138 133 116 135
183 233 266 289 312 357 108 290 317 315 312 316 301 270 291 311 321 327 331 334 338 344 351 347 345 357 360 354 340 335 341 348 355 8 21 66 106 119 129 133 129 129 128 126
179 224 264 324 10 127 260 299 309 309 309 309 302 307 315 319 322 330 335 340 346 351 350 351 352 357 353 339 332 342 358 359 6 17 24 60 96 101 118 132 133 135 129 110
206 224 260 272 259 277 292 296 299 305 306 309 311 316 323 324 326 330 334 337 346 351 347 350 352 352 343 330 336 352 11 10 12 18 26 50 94 117 116 127 143 149 150 150
261 268 277 284 291 309 306 295 299 301 305 311 308 313 320 322 325 331 334 336 341 348 347 343 346 348 341 331 340 8 12 11 18 33 33 35 35 99 143 156 161 162 170 170
263 283 307 296 287 295 302 306 311 315 312 311 311 310 310 314 319 324 327 331 339 341 335 331 340 347 348 347 2 15 19 17 24 25 35 43 35 33 115 214 195 186 189 183
240 250 246 276 288 298 299 302 305 311 316 317 309 302 307 310 316 320 323 330 337 339 336 335 343 346 348 349 360 21 28 18 15 29 44 54 66 42 36 45 52 88 193 212
240 259 252 272 292 297 295 299 305 304 300 306 309 304 308 314 321 325 327 331 331 330 333 338 345 347 347 350 359 10 17 9 357 6 40 77 94 102 55 35 44 55 87 154
253 268 278 277 285 298 300 302 304 306 304 301 305 312 314 317 323 327 326 323 326 332 338 346 351 347 344 352 4 12 13 360 346 325 320 3 153 163 166 140 55 30 39 81
259 249 255 282 296 305 309 313 319 320 321 320 320 320 322 322 322 322 322 324 334 343 344 349 352 343 345 357 7 13 15 6 6 7 1 19 78 111 126 136 140 76 35 40
281 276 273 285 293 302 311 311 308 308 315 319 322 320 319 318 320 324 330 338 344 339 338 343 341 336 346 1 6 8 12 13 15 27 35 34 51 84 132 148 148 214 278 345
268 281 283 290 289 292 292 287 286 293 303 307 308 312 321 327 331 333 336 343 342 335 336 339 335 339 349 358 1 359 4 14 21 27 26 15 18 26 35 173 224 308 327 339
235 246 255 264 275 282 290 292 290 293 294 295 305 318 325 324 319 319 326 337 349 353 349 343 341 346 351 355 359 358 0 5 18 25 19 16 16 17 28 36 40 7 345 2
255 260 265 268 268 270 280 288 291 292 294 297 304 307 309 309 309 315 329 346 349 343 339 343 351 358 355 352 356 357 3 10 15 17 18 18 12 15 17 12 2 347 345 357
276 277 278 282 282 275 278 286 291 298 301 300 303 311 317 316 319 328 341 339 327 311 315 332 342 346 344 346 353 359 8 9 9 7 11 16 9 1 360 360 357 352 353 3
280 286 290 289 289 286 279 281 286 293 304 308 300 296 302 312 322 328 333 325 323 327 330 336 343 337 337 343 350 5 12 10 4 1 2 0 357 356 356 358 356 354 357 359
279 279 284 287 289 292 294 288 281 288 299 304 302 301 306 312 319 319 303 291 307 324 334 334 333 333 341 346 2 18 18 10 359 356 357 355 352 350 351 352 348 345 343 346
274 274 280 282 279 286 303 303 289 287 289 291 294 294 292 293 300 301 306 308 309 320 328 325 331 337 346 358 11 14 11 357 345 344 342 339 332 330 330 334 336 338 334 331
275 279 281 287 297 301 299 299 295 292 289 291 292 291 290 298 305 290 280 309 323 325 326 325 335 340 350 15 15 11 350 330 322 323 323 319 319 322 321 321 322 322 321 320
277 280 286 294 286 277 280 296 307 302 299 303 303 303 298 282 283 303 309 314 322 327 329 329 334 339 355 6 0 337 315 300 292 293 289 293 299 303 304 304 302 303 302 299
271 269 267 259 260 272 282 289 295 298 302 307 313 311 310 307 299 304 313 316 317 321 325 325 329 334 339 330 321 313 306 308 312 308 297 297 298 295 294 292 290 286 285 286
278 279 283 290 286 280 281 280 281 287 285 284 296 305 309 312 314 314 316 320 322 322 323 326 329 328 324 319 311 305 300 297 293 289 286 283 280 279 280 281 281 283 287 289
Height
1499 1495 1494 1492 1489 1487 1487 1487 1486 1483 1481 1478 1475 1472 1469 1467 1464 1462 1460 1459 1458 1457 1457 1457 1457 1457 1457 1458 1458 1459 1460 1461 1463 1464 1466 1468 1470 1472 1474 1476 1477 1479 1482 1484
1499 1493 1492 1490 1489 1488 1487 1486 1485 1482 1482 1478 1476 1473 1471 1468 1466 1464 1462 1460 1459 1458 1457 1457 1457 1457 1457 1457 1458 1458 1459 1460 1461 1462 1463 1465 1467 1469 1471 1473 1474 1476 1478 1481
1501 1497 1492 1494 1492 1490 1489 1488 1486 1485 1484 1479 1476 1474 1472 1470 1468 1465 1463 1461 1460 1459 1458 1457 1457 1457 1456 1456 1456 1457 1457 1458 1459 1460 1461 1463 1464 1466 1468 1470 1471 1473 1475 1477
1505 1503 1504 1497 1491 1490 1489 1487 1486 1484 1482 1480 1477 1474 1472 1470 1468 1465 1463 1462 1460 1459 1458 1457 1456 1456 1455 1455 1455 1455 1456 1456 1457 1458 1459 1461 1462 1463 1465 1467 1468 1470 1472 1474
1508 1508 1501 1494 1492 1492 1491 1488 1486 1484 1481 1479 1476 1472 1470 1469 1468 1466 1464 1462 1461 1459 1458 1456 1455 1454 1454 1453 1453 1454 1454 1455 1455 1456 1457 1458 1460 1461 1463 1465 1466 1468 1469 1471
1511 1508 1505 1497 1492 1489 1490 1488 1485 1484 1482 1479 1476 1475 1472 1469 1467 1465 1463 1462 1460 1458 1457 1455 1454 1453 1452 1452 1452 1452 1453 1453 1454 1454 1455 1456 1458 1459 1461 1462 1464 1466 1467 1469
1513 1511 1502 1496 1492 1489 1494 1492 1486 1483 1481 1479 1477 1476 1473 1469 1466 1465 1463 1461 1459 1457 1455 1454 1453 1452 1451 1451 1451 1451 1451 1451 1452 1452 1453 1454 1455 1457 1459 1460 1462 1463 1465 1466
1511 1510 1504 1494 1492 1494 1493 1488 1485 1483 1480 1478 1475 1473 1470 1468 1465 1463 1461 1459 1458 1456 1454 1453 1452 1451 1450 1449 1449 1450 1450 1449 1450 1450 1451 1452 1453 1455 1456 1458 1459 1461 1462 1464
1505 1502 1495 1493 1492 1491 1489 1487 1484 1482 1479 1477 1473 1471 1468 1466 1464 1462 1460 1458 1457 1455 1453 1452 1451 1450 1449 1448 1448 1447 1447 1448 1448 1449 1449 1450 1451 1452 1454 1455 1457 1458 1460 1461
1501 1495 1492 1491 1489 1488 1487 1485 1483 1480 1478 1475 1472 1469 1467 1465 1463 1461 1459 1457 1455 1453 1452 1451 1450 1449 1448 1447 1446 1446 1445 1446 1446 1447 1447 1448 1449 1451 1452 1453 1455 1456 1458 1459
1498 1493 1490 1488 1487 1486 1484 1482 1480 1478 1476 1473 1471 1468 1466 1463 1461 1459 1457 1456 1454 1452 1450 1449 1448 1447 1446 1446 1445 1444 1444 1444 1444 1445 1446 1447 1448 1449 1450 1452 1453 1455 1456 1457
1495 1490 1490 1487 1485 1484 1482 1479 1478 1475 1472 1471 1469 1466 1464 1462 1460 1458 1456 1454 1452 1451 1449 1448 1447 1446 1445 1444 1444 1443 1442 1443 1443 1444 1444 1445 1446 1447 1448 1450 1451 1453 1454 1455
1489 1487 1487 1485 1483 1482 1480 1477 1475 1473 1471 1468 1466 1464 1462 1460 1458 1456 1454 1453 1451 1449 1448 1447 1446 1444 1444 1443 1442 1442 1441 1441 1442 1442 1443 1444 1444 1445 1446 1448 1449 1450 1451 1452
1486 1486 1483 1482 1481 1479 1477 1475 1473 1471 1468 1467 1464 1462 1460 1458 1457 1455 1453 1452 1450 1449 1447 1446 1444 1443 1443 1442 1441 1441 1440 1441 1441 1441 1441 1442 1443 1443 1444 1445 1446 1447 1449 1450
1483 1483 1481 1480 1478 1477 1475 1473 1470 1468 1466 1464 1462 1461 1459 1457 1455 1454 1452 1451 1449 1447 1446 1445 1443 1442 1442 1441 1440 1440 1439 1439 1439 1439 1440 1440 1441 1442 1442 1443 1444 1445 1446 1447
1480 1479 1478 1477 1475 1474 1472 1470 1468 1466 1464 1462 1461 1459 1457 1456 1454 1453 1451 1450 1448 1446 1445 1444 1442 1442 1441 1440 1439 1438 1438 1438 1438 1438 1438 1438 1439 1440 1440 1441 1442 1443 1443 1444
1477 1476 1475 1473 1472 1471 1470 1468 1466 1464 1463 1461 1459 1458 1456 1454 1453 1451 1450 1449 1447 1445 1444 1443 1442 1441 1440 1440 1439 1438 1437 1437 1436 1436 1437 1437 1437 1438 1438 1439 1439 1440 1441 1442
1474 1473 1472 1471 1470 1468 1467 1466 1464 1463 1461 1459 1458 1456 1454 1453 1452 1450 1449 1448 1446 1444 1443 1443 1441 1440 1440 1439 1438 1437 1437 1436 1436 1435 1436 1436 1436 1436 1436 1437 1437 1438 1438 1440
1471 1470 1469 1468 1467 1466 1465 1463 1462 1461 1459 1457 1456 1454 1453 1452 1451 1450 1448 1446 1445 1443 1443 1442 1441 1440 1439 1438 1438 1437 1436 1436 1435 1435 1435 1435 1435 1435 1435 1435 1435 1436 1436 1437
1468 1467 1466 1465 1465 1464 1462 1461 1460 1458 1457 1455 1454 1453 1451 1451 1450 1448 1447 1446 1445 1443 1442 1441 1440 1440 1439 1438 1437 1437 1436 1436 1435 1435 1434 1434 1434 1434 1434 1434 1434 1434 1435 1435
1465 1464 1463 1463 1462 1461 1460 1459 1457 1456 1455 1454 1453 1451 1450 1449 1449 1447 1446 1445 1444 1443 1442 1441 1440 1439 1438 1438 1437 1436 1436 1435 1435 1434 1434 1434 1433 1433 1433 1433 1433 1433 1434 1434
1462 1462 1461 1460 1459 1458 1458 1457 1455 1454 1453 1452 1451 1450 1449 1448 1447 1446 1445 1444 1443 1442 1441 1440 1439 1438 1437 1437 1436 1435 1435 1435 1434 1434 1433 1433 1433 1433 1433 1433 1433 1433 1433 1433
1460 1459 1459 1458 1457 1456 1455 1454 1453 1452 1451 1450 1449 1448 1447 1446 1445 1444 1443 1443 1442 1440 1439 1438 1438 1437 1436 1436 1435 1434 1434 1434 1433 1433 1433 1433 1432 1432 1432 1432 1432 1432 1432 1432
1458 1457 1456 1456 1455 1454 1452 1452 1451 1450 1449 1448 1447 1447 1445 1444 1444 1443 1442 1441 1440 1439 1438 1437 1436 1436 1435 1434 1434 1434 1433 1433 1433 1432 1432 1432 1432 1431 1431 1431 1431 1431 1430 1430
1456 1455 1454 1453 1452 1451 1450 1450 1449 1448 1447 1446 1445 1445 1444 1443 1442 1441 1440 1439 1438 1437 1436 1435 1435 1434 1433 1433 1432 1432 1432 1432 1431 1431 1431 1431 1431 1430 1430 1430 1430 1429 1429 1429
1453 1452 1451 1451 1450 1449 1448 1447 1446 1446 1445 1444 1443 1443 1442 1441 1440 1439 1438 1437 1436 1435 1434 1433 1433 1432 1431 1431 1431 1431 1430 1430 1430 1430 1430 1429 1429 1429 1429 1428 1428 1428 1427 1427
1451 1450 1449 1448 1448 1447 1446 1445 1444 1444 1443 1442 1441 1441 1440 1439 1438 1437 1436 1435 1434 1433 1432 1431 1431 1430 1430 1429 1429 1429 1429 1429 1428 1428 1428 1428 1427 1427 1427 1426 1426 1426 1426 1425